{"data":{"norad_id":57338,"epoch":"2026-09-20T14:29:53.298240Z","epoch_age_seconds":115231,"freshness":"FRESH","line1":"1 57338U 23099L   26263.60408910 -.00000575  00000+0 -11373-4 0  9993","line2":"2 57338  43.0006 231.8323 0000983 264.3557  95.7182 15.27576097175885","mean_motion":15.27576097,"eccentricity":9.83e-5,"inclination_deg":43.0006,"raan_deg":231.8323,"arg_perigee_deg":264.3557,"mean_anomaly_deg":95.7182,"bstar":-1.1373e-5,"rev_number":17588,"period_min":94.266989567853,"perigee_km":482.38632730856,"apogee_km":483.73523879271,"semimajor_km":6861.1977830506,"source":"CELESTRAK","updated_at":"2026-09-21T09:00:33.597821Z"}}